Махтумкули

Туркменистан     38°26′05″N   56°17′21″E
В апреле 2022 года жителям России запретили посещать сайт meteo.paraplan.net по решению Генеральной прокуратуры. Аудитория сайта уменьшилась в 10 раз. Владельцы сайта не видят смысла в поддержке погодного сервера в таких условиях. Сайт будет закрыт в октябре.
темп.,
°C
ветер,
м/с
пор.,
м/с
влажн.,
%
обл.,
%
осадки,
мм/ч
давл.,
гПа
погр.,
м
26 сентября, пн
пн2623:00+22с22460 0.0 101911
02:00+21ссв33490 0.0 101948
05:00+19св34560 0.1 102172
08:00+19св45560 0.0 1022246
11:00+23св43410 0.0 1021871
14:00+26св54320 0.0 10191279
17:00+26св66300 0.0 10181003
20:00+23всв58360 0.0 1018211
27 сентября, вт
вт2723:00+22всв46390 0.0 1018122
02:00+20в46420 0.0 101776
05:00+20в22450 0.0 101720
08:00+20св11440 0.0 101732
11:00+25с11330 0.0 1016721
14:00+29ссз32260 0.0 10131312
17:00+30ссв43230 0.0 10111175
20:00+26всв44260 0.0 101149
28 сентября, ср
ср2823:00+24в33290 0.0 101131
02:00+23в22320 0.0 101015
05:00+21всв11350 0.0 101012
08:00+22ссв00340 0.0 101012
11:00+28ссз22240 0.0 1010561
14:00+32ссз32180 0.0 10081111
17:00+33ссв32150 0.0 1006860
20:00+27в561847 0.0 100654
29 сентября, чт
чт2923:00+26в33200 0.0 100616
02:00+24юв11240 0.0 100611
05:00+22всв00275 0.0 100611
08:00+24вюв11250 0.0 100711
11:00+30з33180 0.0 1008538
14:00+33з43175 0.0 10071108
17:00+34з43180 0.0 10061521
20:00+28юз332228 0.0 100820
30 сентября, пт
пт3023:00+25ююз22240 0.0 100911
02:00+23юз44290 0.0 101048
05:00+21ююз33390 0.0 101227
08:00+20ююз34490 0.0 1015151
11:00+24ююз67510 0.0 10161052
14:00+27зюз885186 0.0 10151586
17:00+27юз564631 0.1 10141776
20:00+24зюз585525 0.0 1016227